Tracking 28790 objects as of 19-Apr-2024
HD Live streaming from Space Station
objects crossing your sky now

DELTA 2 R/B(2)

Track DELTA 2 R/B(2) now!


NORAD ID: 23018
Int'l Code: 1994-013C
Perigee: 2,935.0 km
Apogee: 37,125.6 km
Inclination: 25.7 °
Period: 711.5 minutes
Semi major axis: 26401 km
RCS: 3.4432 m2 (large)
Launch date: February 19, 1994
Source: United States (US)
Launch site: AIR FORCE EASTERN TEST RANGE (AFETR)

Note: This is a ROCKET BODY
Your satellite tracking list
Your tracking list is empty




NASA's NSSDC Master Catalog

Two Line Element Set (TLE):
1 23018U 94013C   24109.73579683 -.00000495  00000-0  00000+0 0  9993
2 23018  25.7424  18.9381 6475168 332.2189   4.8044  2.02378505223026
Source of the keplerian elements: AFSPC